Weather History for KIML - April, 2013

Change the Weather History Date:

Monday, April 22, 2013

  Actual Average Record
Temperature  
Mean Temperature 35 °F 50 °F  
Max Temperature 45 °F 64 °F 95 °F (1989)
Min Temperature 25 °F 37 °F 19 °F (1907)
Degree Days  
Heating Degree Days 30 15  
Month to date heating degree days 517 395  
Cooling Degree Days 0 0  
Month to date cooling degree days 0 0  
Year to date cooling degree days 0 0  
Moisture  
Dew Point 33 °F    
Average Humidity 85    
Maximum Humidity 100    
Minimum Humidity 69    
Precipitation  
Precipitation 0.19 in 0.07 in 1.25 in (1915)
Sea Level Pressure  
Sea Level Pressure 30.08 in    
Wind  
Wind Speed 19 mph (NE)    
Max Wind Speed 35 mph    
Max Gust Speed 40 mph    
Visibility 6 miles    
Events Fog , Rain , Snow    
T = Trace of Precipitation, MM = Missing Value Source: NWS Daily Summary

Daily Weather History Graph

Daily Weather History Graph

Search for Another Location

Airport or City:

Trip Planner

Search our weather history database for the weather conditions in past years. The results will help you decide how hot, cold, wet, or windy it might be!

Date:

Astronomy

Apr. 22, 2013 Rise Set
Actual Time 5:57 AM MDT 7:33 PM MDT
Civil Twilight 5:28 AM MDT 8:02 PM MDT
Nautical Twilight 4:53 AM MDT 8:37 PM MDT
Astronomical Twilight 4:16 AM MDT 9:14 PM MDT
Moon 4:23 PM MDT (4/22) 3:53 AM MDT (4/22)
Length of Visible Light 14h 33m
Length of Day
13h 35m
Waxing Gibbous, 88% of the Moon is Illuminated
Apr 22
Waxing Gibbous
Apr 25
Full
May 2
Last Quarter
May 9
New
May 17
First Quarter

Hourly Weather History & Observations

Time (MDT) Temp. Windchill Dew Point Humidity Pressure Visibility Wind Dir Wind Speed Gust Speed Precip Events Conditions
12:53 AM 44.1 °F 37.1 °F 42.1 °F 93% 29.98 in 10.0 mi ESE 15.0 mph - 0.05 in   Mostly Cloudy
1:37 AM 42.8 °F 35.1 °F 41.0 °F 93% 29.98 in 10.0 mi ESE 16.1 mph 24.2 mph N/A   Partly Cloudy
1:53 AM 43.0 °F 34.8 °F 41.0 °F 93% 29.96 in 10.0 mi ESE 18.4 mph - N/A   Mostly Cloudy
2:32 AM 42.8 °F 35.4 °F 41.0 °F 93% 29.94 in 9.0 mi ESE 15.0 mph - N/A   Overcast
2:53 AM 43.0 °F 36.0 °F 41.0 °F 93% 29.91 in 8.0 mi ESE 13.8 mph - N/A   Overcast
3:46 AM 42.8 °F 36.6 °F 41.0 °F 93% 29.91 in 1.8 mi ESE 11.5 mph - N/A   Overcast
3:53 AM 42.1 °F 34.9 °F 41.0 °F 96% 29.91 in 2.0 mi ESE 13.8 mph - N/A   Overcast
4:32 AM 42.8 °F 35.8 °F 41.0 °F 93% 29.92 in 1.5 mi ESE 13.8 mph - N/A   Overcast
4:43 AM 42.8 °F 38.6 °F 41.0 °F 93% 29.94 in 0.5 mi SE 6.9 mph - N/A Fog Fog
4:53 AM 41.0 °F 32.8 °F 41.0 °F 100% 29.92 in 0.2 mi SE 16.1 mph - N/A Fog Fog
5:04 AM 41.0 °F 31.6 °F 41.0 °F 100% 29.91 in 0.2 mi ESE 20.7 mph - N/A Fog Fog
5:32 AM 41.0 °F 35.8 °F 41.0 °F 100% 29.95 in 0.5 mi NE 8.1 mph - 0.03 in Fog , Rain Light Rain
5:53 AM 41.0 °F 39.0 °F 41.0 °F 100% 29.97 in 0.8 mi WSW 3.5 mph - 0.03 in   Mist
5:59 AM 41.0 °F - 41.0 °F 100% 29.97 in 2.0 mi Calm Calm - 0.01 in Rain Rain
6:18 AM 42.8 °F 38.6 °F 41.0 °F 93% 29.95 in 3.0 mi East 6.9 mph - 0.05 in Rain Light Rain
6:34 AM 41.0 °F 34.3 °F 39.2 °F 93% 29.92 in 2.0 mi East 11.5 mph - 0.07 in Rain Light Rain
6:46 AM 41.0 °F 34.3 °F 41.0 °F 100% 29.91 in 4.0 mi NE 11.5 mph - 0.07 in   Overcast
6:53 AM 41.0 °F 34.3 °F 39.9 °F 96% 29.92 in 2.5 mi NE 11.5 mph - 0.07 in   Overcast
7:05 AM 41.0 °F 34.3 °F 41.0 °F 100% 29.91 in 4.0 mi ENE 11.5 mph - N/A   Overcast
7:53 AM 42.1 °F 39.2 °F 42.1 °F 100% 29.95 in 8.0 mi ESE 4.6 mph - N/A   Overcast
8:26 AM 42.8 °F 38.0 °F 41.0 °F 93% 29.99 in 2.0 mi WNW 8.1 mph - 0.04 in Rain Rain
8:34 AM 42.8 °F 39.3 °F 41.0 °F 93% 29.96 in 1.5 mi East 5.8 mph - 0.07 in Rain Rain
8:42 AM 42.8 °F 38.0 °F 41.0 °F 93% 29.94 in 3.0 mi East 8.1 mph - 0.08 in Rain Light Rain
8:53 AM 44.1 °F 39.0 °F 42.1 °F 93% 29.94 in 6.0 mi NNE 9.2 mph - 0.08 in Rain Light Rain
9:15 AM 44.6 °F 38.4 °F 42.8 °F 93% 29.92 in 10.0 mi NE 12.7 mph - 0.01 in   Overcast
9:41 AM 42.8 °F 34.5 °F 41.0 °F 93% 29.96 in 10.0 mi NNE 18.4 mph - 0.01 in   Overcast
9:53 AM 41.0 °F 31.1 °F 39.9 °F 96% 29.99 in 9.0 mi NNE 23.0 mph - 0.01 in   Overcast
10:03 AM 39.2 °F 29.0 °F 39.2 °F 100% 29.97 in 8.0 mi NNE 21.9 mph 27.6 mph N/A   Overcast
10:50 AM 37.4 °F 26.9 °F 35.6 °F 93% 30.03 in 2.5 mi NNE 20.7 mph 32.2 mph 0.00 in Rain Light Rain
10:53 AM 36.0 °F 23.9 °F 35.1 °F 97% 30.07 in 2.5 mi NNE 25.3 mph 34.5 mph 0.00 in Rain Light Rain
11:04 AM 33.8 °F 20.8 °F 32.0 °F 93% 30.04 in 3.0 mi NNE 26.5 mph 33.4 mph 0.00 in Rain Light Rain
11:27 AM 32.0 °F 18.9 °F 30.2 °F 93% 30.07 in 10.0 mi NNE 24.2 mph 34.5 mph 0.00 in   Overcast
11:48 AM 30.2 °F 15.9 °F 28.4 °F 93% 30.08 in 10.0 mi NNE 26.5 mph 35.7 mph 0.00 in   Unknown
11:53 AM 30.9 °F 16.4 °F 28.0 °F 89% 30.13 in 9.0 mi NNE 28.8 mph 36.8 mph 0.00 in   Unknown
12:18 PM 30.2 °F 15.4 °F 28.4 °F 93% 30.09 in 10.0 mi NNE 28.8 mph 39.1 mph N/A   Overcast
12:53 PM 30.0 °F 14.5 °F 27.0 °F 88% 30.16 in 10.0 mi NNE 32.2 mph 40.3 mph N/A   Overcast
1:51 PM 33.8 °F - 28.4 °F 81% 30.12 in 10.0 mi North - - N/A   Unknown
1:53 PM 33.1 °F - 28.0 °F 82% 30.18 in - North - - N/A   Unknown
2:32 PM 33.8 °F 19.9 °F 26.6 °F 75% 30.14 in 10.0 mi NNE 31.1 mph 39.1 mph N/A   Overcast
2:53 PM 32.0 °F 17.6 °F 25.0 °F 75% 30.19 in 10.0 mi NNE 29.9 mph 38.0 mph N/A   Overcast
3:27 PM 32.0 °F 18.9 °F 24.8 °F 75% 30.16 in 10.0 mi NNE 24.2 mph 34.5 mph N/A   Unknown
3:53 PM 33.1 °F 19.8 °F 25.0 °F 72% 30.21 in 10.0 mi NNE 26.5 mph 34.5 mph N/A   Overcast
4:53 PM 30.9 °F 17.8 °F 23.0 °F 72% 30.25 in 10.0 mi NNE 23.0 mph 28.8 mph N/A   Unknown
5:17 PM 30.2 °F 17.1 °F 21.2 °F 69% 30.19 in 10.0 mi NE 21.9 mph 29.9 mph N/A   Overcast
5:53 PM 30.9 °F - 21.9 °F 69% 30.28 in - North - - N/A   Unknown
6:28 PM 30.2 °F 17.4 °F 21.2 °F 69% 30.22 in 10.0 mi NNE 20.7 mph 26.5 mph N/A   Overcast
6:53 PM 30.0 °F 16.6 °F 21.9 °F 72% 30.27 in 10.0 mi NNE 23.0 mph 31.1 mph N/A   Overcast
7:53 PM 30.0 °F 17.2 °F 21.0 °F 69% 30.35 in 10.0 mi NNE 20.7 mph 26.5 mph N/A   Overcast
8:53 PM 28.9 °F 15.8 °F 21.9 °F 75% 30.35 in 10.0 mi North 20.7 mph 26.5 mph N/A   Unknown
9:22 PM 28.4 °F 15.8 °F 21.2 °F 74% 30.32 in 10.0 mi North 18.4 mph - N/A   Overcast
9:53 PM 28.0 °F 15.7 °F 19.9 °F 72% 30.41 in 10.0 mi North 17.3 mph 26.5 mph N/A   Overcast
10:53 PM 27.0 °F 13.9 °F 21.0 °F 78% 30.40 in 2.0 mi North 18.4 mph 26.5 mph 0.00 in Snow Light Snow
11:07 PM 26.6 °F 13.4 °F 21.2 °F 80% 30.33 in 4.0 mi North 18.4 mph - 0.00 in Snow Light Snow
11:35 PM 26.6 °F 13.4 °F 21.2 °F 80% 30.32 in 2.5 mi North 18.4 mph - 0.00 in Snow Light Snow
11:53 PM 26.1 °F 14.0 °F 21.0 °F 81% 30.41 in 4.0 mi North 15.0 mph - 0.00 in Snow Light Snow